Location: Edinburgh
(55.9500°N, 3.1600°W)
Time: 11:29:56
(UTC+01:00)

AO-91 - Pass Details

Date: 30 May 2024
Orbit: 442 x 732 km, 97.6° (Epoch: 16 June)

Event Time Altitude Azimuth Distance (km) Brightness Sun altitude
Rises 00:32:47 0° 7° (N) 2,904 ? -11.8°
Reaches altitude 10° 00:35:17 10° 353° (N) 2,045 ? -11.9°
Maximum altitude 00:38:44 22° 302° (WNW) 1,443 ? -12.0°
Drops below altitude 10° 00:42:22 10° 252° (WSW) 2,155 ? -12.0°
Sets 00:45:05 0° 238° (WSW) 3,105 ? -12.1°
